This is the latest recevied weather packets stored in our database for station/object KE2HEH. If no packets are shown the sender has not sent any weather packets the latest 10 day(s).
| Time | Temp. | Humidity | Pressure | Rain* | Wind** | Luminosity | Snow |
|---|---|---|---|---|---|---|---|
| 1778282120 | 12.22° C | 83% | 1012.5 hPa | 0 mm | - | 30 W/m² | - |
| 1778281817 | 12.22° C | 83% | 1012.4 hPa | 0 mm | - | 30 W/m² | - |
| 1778281514 | 12.22° C | 82% | 1012.4 hPa | 0 mm | - | 39 W/m² | - |
| 1778281210 | 12.78° C | 81% | 1012.5 hPa | 0 mm | - | 56 W/m² | - |
| 1778280908 | 12.78° C | 81% | 1012.3 hPa | 0 mm | - | 43 W/m² | - |
| 1778280604 | 12.78° C | 81% | 1012.4 hPa | 0 mm | - | 55 W/m² | - |
| 1778280302 | 12.78° C | 81% | 1012.3 hPa | 0 mm | - | 58 W/m² | - |
| 1778279999 | 12.22° C | 81% | 1012.4 hPa | 0 mm | - | 48 W/m² | - |
| 1778279697 | 12.78° C | 80% | 1012.3 hPa | 0 mm | - | 46 W/m² | - |
| 1778279394 | 12.78° C | 80% | 1012.3 hPa | 0 mm | - | 68 W/m² | - |
| 1778279092 | 12.78° C | 80% | 1012.3 hPa | 0 mm | - | 77 W/m² | - |
| 1778278788 | 13.33° C | 79% | 1012.3 hPa | 0 mm | - | 97 W/m² | - |
| 1778278484 | 13.33° C | 79% | 1012.2 hPa | 0 mm | - | 82 W/m² | - |
| 1778278180 | 12.78° C | 79% | 1012.2 hPa | 0 mm | - | 118 W/m² | - |
| 1778277877 | 12.78° C | 79% | 1012.2 hPa | 0 mm | - | 158 W/m² | - |
| 1778277573 | 12.78° C | 79% | 1012.2 hPa | 0 mm | - | 170 W/m² | - |
| 1778277271 | 12.78° C | 79% | 1012.1 hPa | 0 mm | - | 104 W/m² | - |
| 1778276967 | 12.78° C | 78% | 1012.4 hPa | 0 mm | - | 88 W/m² | - |
| 1778276665 | 12.78° C | 77% | 1012.2 hPa | 0 mm | - | 108 W/m² | - |
| 1778276360 | 12.78° C | 77% | 1012.3 hPa | 0 mm | - | 227 W/m² | - |
| 1778276058 | 13.33° C | 75% | 1012.7 hPa | 0 mm | - | 195 W/m² | - |
| 1778275753 | 12.78° C | 73% | 1012.5 hPa | 0 mm | - | 125 W/m² | - |
| 1778275450 | 12.78° C | 77% | 1012.2 hPa | 0 mm | - | 100 W/m² | - |
| 1778275146 | 12.22° C | 79% | 1012.4 hPa | 0 mm | - | 167 W/m² | - |
| 1778274842 | 12.22° C | 79% | 1012.5 hPa | 0 mm | - | 137 W/m² | - |
* Rain latest hour (hover to see other rain measurements)
** Current wind speed in m/s (hover to see current wind gust speed)